Tracking 25710 objects as of 6-Jul-2022
HD Live streaming from Space Station
objects crossing your sky now

FENGYUN 1C DEB

Track FENGYUN 1C DEB now!
10-day predictions


NORAD ID: 30306
Int'l Code: 1999-025ZT
Perigee: 742.0 km
Apogee: 932.5 km
Inclination: 98.7 °
Period: 101.5 minutes
Semi major axis: 7208 km
RCS: 0.0194 m2 (small)
Launch date: May 10, 1999
Source: People's Republic of China (PRC)
Launch site: Taiyaun Space Center, China (TSC)

Note: This is SATELLITE DEBRIS
aabbcc
Your satellite tracking list
Your tracking list is empty




NASA's NSSDC Master Catalog

Two Line Element Set (TLE):
1 30306U 99025ZT  22186.12138766  .00000612  00000-0  29010-3 0  9994
2 30306  98.6975 234.4201 0132193  42.6563 318.4787 14.18596488798128
Source of the keplerian elements: AFSPC